Theta_e
344 344 343 341 338 336 337 337 335 333 334 335 335 334 332 332 330 330 331 331 331 329 326 325 328 327 327 327 329 329 327 327 325 327 326 327 327 327 326 324 324 323 329
343 341 339 338 338 337 337 337 333 335 334 334 332 331 331 330 332 331 331 330 331 327 326 326 325 328 328 327 326 324 330 328 327 326 327 328 326 328 329 328 328 328 329
338 338 338 338 337 337 336 333 334 333 332 331 331 331 331 331 332 332 332 332 332 327 325 326 324 325 327 327 324 327 328 327 325 326 326 326 328 330 329 331 330 332 331
337 337 337 336 335 334 333 333 333 332 331 331 331 331 332 332 332 331 332 331 327 327 326 326 324 324 326 326 328 327 328 326 326 325 327 327 328 328 329 331 329 330 328
336 334 333 333 333 334 334 334 333 331 331 332 332 332 332 332 331 331 331 327 327 326 327 326 325 324 326 326 326 328 328 328 326 326 326 327 328 326 328 328 327 327 325
331 331 332 333 334 335 335 334 332 331 332 332 332 332 332 329 324 325 327 330 328 328 328 326 326 327 326 325 326 327 328 324 326 326 327 327 327 327 327 326 326 323 322
330 332 333 334 335 334 334 333 331 331 332 332 332 331 330 329 325 325 327 329 329 329 328 326 326 327 326 325 325 326 326 324 325 326 327 327 327 327 326 325 324 324 323
330 332 333 334 333 333 333 332 331 331 331 331 331 331 330 327 328 328 329 330 329 328 327 326 327 327 327 326 326 326 326 325 326 326 326 326 327 326 325 325 324 324 322
331 332 333 332 333 332 332 332 332 331 330 331 330 331 328 329 330 329 330 329 329 328 327 327 326 325 327 327 327 326 325 325 325 325 326 325 325 326 326 325 324 322 320
331 332 332 332 333 332 332 332 331 329 330 331 331 328 329 329 329 329 328 328 328 327 328 327 326 325 326 327 327 327 325 325 325 325 325 324 323 324 325 325 322 321 320
332 332 332 333 333 333 333 331 330 330 331 330 330 327 328 329 328 328 328 327 327 327 327 327 327 326 325 326 326 326 325 325 325 324 324 324 322 323 322 322 321 321 322
332 332 333 334 333 333 333 331 330 331 331 330 328 326 327 329 328 328 326 326 326 327 327 327 327 326 326 325 326 325 325 325 324 324 324 323 322 322 322 321 321 322 323
333 333 333 334 333 333 332 332 331 331 331 331 329 328 326 330 328 327 326 325 325 326 327 327 326 326 325 325 325 324 324 324 324 324 324 323 322 321 321 321 320 321 321
333 333 334 333 333 333 332 332 332 330 331 330 329 328 326 328 327 326 325 325 325 326 325 325 325 325 325 325 324 325 324 324 324 325 324 323 322 321 321 320 321 322 323
333 333 333 333 333 333 332 332 332 330 330 330 330 329 328 326 327 326 325 325 325 325 324 324 324 324 324 324 323 325 325 325 325 324 324 323 322 322 322 322 323 322 320
333 333 333 333 333 332 331 330 329 328 327 327 329 330 328 328 326 325 324 324 325 325 323 323 323 323 322 321 322 323 324 324 323 323 322 323 322 322 322 322 323 322 320
332 332 331 330 330 331 331 331 330 328 327 327 327 327 327 326 326 325 324 324 326 325 323 323 323 322 322 322 322 323 323 323 324 323 323 323 324 324 322 324 324 323 322
332 332 330 330 329 329 330 332 332 331 330 328 327 327 326 326 326 325 324 325 325 325 324 323 323 322 322 322 322 323 323 324 325 324 325 325 324 325 325 325 322 321 320
331 330 330 330 330 328 328 330 331 332 332 330 328 327 326 326 325 325 324 325 325 325 325 324 325 325 323 323 325 326 325 326 326 326 326 326 326 326 326 324 323 321 321
330 330 330 330 331 330 327 328 330 332 332 331 329 327 325 326 325 325 325 324 325 324 325 325 325 326 325 326 326 327 327 326 326 326 326 326 327 326 325 324 323 323 323
328 330 331 330 330 330 329 326 328 329 331 330 330 327 326 326 326 324 325 327 327 328 326 325 325 325 326 326 326 326 325 326 328 328 327 328 327 326 325 324 324 324 324
328 329 329 329 330 330 330 329 327 327 328 329 330 326 326 328 329 328 327 328 329 329 328 328 328 328 328 327 327 327 326 327 327 326 327 327 326 326 325 325 325 326 326
328 329 328 328 329 329 331 330 329 328 327 327 328 325 326 329 328 328 328 329 329 330 329 328 328 327 327 328 328 328 328 327 327 327 327 327 328 327 327 327 327 327 327
330 329 329 330 330 330 331 331 331 330 328 327 328 328 327 329 329 329 329 329 329 329 329 329 329 329 328 328 328 327 327 327 328 328 328 328 329 329 328 328 328 328 328
333 332 332 332 332 332 332 333 332 332 331 329 329 330 330 330 331 332 332 332 332 332 331 331 331 330 329 328 328 328 328 326 326 326 327 327 327 327 327 327 326 326 326
328 327 328 329 330 331 332 332 332 332 332 332 331 331 330 330 329 329 329 329 330 331 331 331 331 331 330 330 329 329 329 328 327 324 324 325 326 326 326 326 325 325 324
Wind_Speed
22 21 22 20 21 21 19 17 15 14 12 11 11 10 11 11 10 10 10 10 11 11 11 9 9 10 9 10 13 11 8 12 14 11 10 12 12 13 15 16 16 19 19
22 22 22 22 20 19 17 15 13 11 11 11 11 11 10 10 10 10 11 11 11 12 12 11 10 7 10 11 12 14 10 12 15 15 13 13 12 13 16 18 19 19 19
23 23 22 20 18 17 15 13 13 13 12 11 11 10 9 9 10 10 10 9 9 9 9 12 14 9 9 11 13 12 14 13 13 17 18 16 18 18 18 21 23 25 22
22 21 20 18 16 15 14 14 14 13 12 11 11 10 9 8 7 7 7 8 8 8 8 11 15 13 10 14 12 10 14 18 15 17 20 20 21 21 20 26 29 30 38
20 19 18 17 16 15 15 15 14 13 13 12 11 9 8 5 7 7 6 6 8 7 7 11 12 13 13 15 14 16 17 17 20 23 25 24 26 23 25 31 31 34 37
18 17 17 16 15 14 14 15 15 14 14 12 11 7 4 4 5 8 7 6 5 6 6 12 12 12 14 15 16 16 19 18 24 27 29 27 27 27 29 28 31 37 33
18 18 16 14 12 13 14 15 15 14 13 11 8 4 3 3 5 6 5 4 5 4 4 10 9 11 17 19 19 20 17 12 17 27 29 30 31 25 28 40 43 43 41
18 17 15 12 11 13 15 15 15 12 11 11 6 4 3 3 5 6 4 2 4 6 5 9 7 10 17 21 21 20 18 14 20 23 25 25 28 25 36 36 41 34 33
19 16 13 12 13 14 15 16 15 13 11 9 6 5 4 5 6 6 5 4 5 5 6 10 12 9 14 21 23 21 20 21 18 20 22 20 23 30 31 35 35 34 38
18 15 13 13 14 15 16 15 13 12 11 8 7 6 6 6 7 6 6 5 6 6 7 11 12 13 12 21 23 24 24 23 22 20 19 17 22 27 27 27 30 35 37
18 15 14 13 13 14 15 14 13 13 11 10 9 8 7 6 8 7 6 4 3 7 8 10 14 17 15 16 20 21 23 23 21 19 19 22 23 25 28 30 33 31 18
18 16 15 14 12 13 14 13 14 14 12 11 10 10 7 7 8 7 6 3 4 8 8 12 13 15 19 17 19 20 22 22 22 22 24 23 24 29 31 32 29 17 12
19 17 15 14 13 13 13 12 11 12 11 11 11 9 9 8 8 6 5 3 5 8 10 15 15 17 19 21 16 18 22 23 24 25 26 26 22 28 26 26 25 18 14
19 17 16 15 14 13 11 9 10 12 13 12 12 11 9 10 8 7 5 5 7 10 15 16 17 17 17 16 23 23 23 23 23 23 25 25 24 27 27 24 19 13 10
19 17 14 15 14 13 10 8 6 8 11 12 11 11 9 9 10 7 5 8 9 18 19 18 17 18 20 22 21 26 23 22 20 22 25 27 26 27 25 19 14 14 12
20 17 15 14 12 10 10 9 8 8 11 14 13 11 10 10 9 7 6 10 12 20 18 19 18 19 22 21 20 24 21 22 23 22 24 25 25 22 19 17 14 14 15
19 17 15 14 12 11 11 11 10 11 11 11 12 13 10 10 10 8 10 12 16 17 17 17 18 18 20 19 18 19 19 19 18 18 22 21 21 21 20 16 16 16 17
19 18 16 13 11 11 11 10 10 10 10 11 11 10 10 13 12 11 13 15 18 17 17 16 14 15 18 18 18 17 18 19 19 20 20 20 20 20 18 17 18 17 17
20 19 16 14 11 10 11 11 10 8 9 10 12 11 12 16 14 12 12 14 15 15 17 17 14 13 15 17 16 18 19 18 18 18 17 18 19 19 18 18 17 17 17
21 19 15 14 13 11 10 10 9 9 8 7 10 12 16 19 18 17 16 11 11 13 16 15 17 13 13 15 16 15 16 18 18 18 18 19 19 21 21 19 18 18 19
21 19 16 15 13 12 10 10 10 9 8 8 8 9 13 15 16 16 12 11 10 10 9 11 14 15 16 15 17 18 17 17 18 17 17 18 19 22 22 20 19 20 20
20 19 17 15 13 13 11 9 10 10 9 10 10 10 15 14 11 13 13 12 11 10 10 10 10 11 12 15 18 18 18 17 17 20 19 19 21 22 22 23 22 22 23
18 17 18 15 13 13 13 11 9 10 10 10 10 11 12 11 9 9 10 10 11 11 10 11 11 11 12 14 15 16 18 18 19 19 20 21 22 22 23 25 25 26 27
16 16 16 14 13 13 11 11 11 9 10 10 10 8 10 9 9 8 7 7 7 8 9 9 10 11 11 12 12 13 15 15 16 17 20 20 22 24 26 26 27 27 28
15 14 13 11 9 9 9 10 11 11 11 9 10 9 8 7 7 7 6 6 6 7 7 8 8 8 10 12 12 13 15 19 19 17 17 19 21 23 24 26 26 28 29
17 17 16 16 16 12 12 13 14 12 11 11 10 9 9 8 7 6 5 4 4 4 5 4 5 8 11 15 17 20 21 25 25 24 23 23 23 24 25 26 28 30 31
Wind_Direction
148 147 143 142 145 148 150 153 161 168 172 177 185 188 187 188 192 194 199 210 209 211 219 223 229 223 211 193 189 184 189 182 187 154 163 180 185 171 179 177 173 174 174
146 143 141 141 144 147 150 155 167 166 166 169 171 174 180 182 196 203 212 217 216 223 233 221 221 220 209 197 195 191 193 170 173 166 165 163 164 170 165 167 170 166 164
143 143 141 143 146 149 154 163 158 156 154 159 166 171 178 190 205 213 221 224 215 222 229 225 220 218 205 189 192 198 186 176 180 169 163 160 158 167 163 157 158 163 168
145 145 144 145 149 151 154 153 151 155 153 159 164 168 178 190 212 219 219 212 212 213 247 242 213 215 209 191 186 190 185 169 165 170 163 159 156 163 166 160 156 170 167
146 146 144 144 145 149 151 154 157 155 156 159 165 171 181 186 210 208 213 221 212 227 236 215 203 206 207 192 189 171 167 159 162 166 161 162 162 164 166 161 158 160 160
146 145 144 145 151 155 158 159 156 156 160 162 164 170 172 197 217 208 196 209 232 250 265 205 207 210 204 189 174 178 173 176 171 173 166 165 163 172 169 167 161 150 147
148 148 149 150 157 164 163 160 162 166 168 166 159 160 170 211 214 192 190 201 226 214 189 196 213 209 193 188 181 180 180 160 178 176 174 176 168 165 156 155 158 164 162
152 151 154 154 161 164 163 163 166 167 169 161 156 148 158 181 160 162 172 199 158 158 171 188 200 185 187 185 172 170 175 163 180 186 183 180 174 170 168 168 165 165 162
154 155 154 161 163 164 167 170 168 168 162 156 146 142 169 160 151 153 142 153 153 163 171 175 171 159 172 176 167 174 167 167 174 181 183 183 182 180 178 175 175 167 160
158 155 157 165 165 167 166 166 169 169 162 152 136 163 147 150 150 152 147 149 171 182 167 172 182 175 160 165 170 173 167 164 172 177 182 180 173 181 181 182 166 162 161
157 155 158 162 164 169 167 170 167 164 165 150 144 150 145 146 138 138 134 126 165 164 163 166 175 181 181 171 172 172 168 164 172 171 165 164 171 178 179 173 169 159 158
160 157 161 162 158 160 160 165 171 171 165 153 153 154 151 148 140 136 133 123 161 164 160 163 165 168 180 171 169 181 169 167 167 168 165 159 168 173 176 177 167 152 163
162 160 165 156 158 154 158 167 172 178 175 166 160 167 164 160 152 148 152 132 153 158 151 150 157 156 160 172 176 164 164 168 168 171 170 168 171 170 173 178 179 186 183
162 164 167 160 156 151 155 170 179 187 181 176 168 169 171 167 162 156 165 165 160 153 149 145 149 156 168 166 168 169 177 177 173 175 175 171 173 172 176 179 184 186 186
162 163 164 163 158 157 154 163 178 182 177 178 170 168 172 171 164 175 169 167 166 156 149 143 147 151 152 161 174 176 179 177 177 176 178 177 176 175 177 178 187 192 183
162 162 164 164 159 162 161 159 164 160 164 172 168 163 173 185 167 162 163 156 163 159 148 148 150 153 150 154 165 177 182 176 175 179 179 177 175 176 180 187 191 198 198
165 164 162 161 163 165 166 160 155 153 153 163 175 183 183 176 167 161 154 150 157 159 157 155 157 157 158 166 169 170 169 170 172 169 170 173 177 179 187 190 196 204 209
171 169 166 160 157 163 169 170 164 162 156 159 158 170 165 165 162 160 153 149 160 170 170 161 160 169 165 163 162 171 167 164 163 169 176 182 186 188 194 199 204 209 213
175 173 169 165 161 158 165 173 170 168 158 156 162 162 162 160 159 156 156 160 168 178 182 175 167 168 175 170 163 166 170 173 177 179 184 189 192 195 203 206 214 218 220
175 175 169 166 167 160 161 166 167 155 143 150 166 165 163 167 166 164 156 162 164 186 188 189 183 176 186 182 182 182 184 190 190 194 200 202 202 203 211 216 220 227 232
177 180 170 167 169 166 161 168 168 166 156 145 150 163 165 166 175 173 171 173 167 172 177 184 191 193 189 192 197 200 198 194 197 201 204 207 208 212 216 222 230 234 237
179 181 174 174 173 171 168 167 174 174 168 154 156 149 143 146 176 180 181 180 176 176 178 178 186 192 197 203 205 207 208 210 211 209 208 215 220 223 225 230 235 240 243
176 174 176 177 176 175 173 173 170 174 175 168 168 173 160 154 171 174 180 186 186 186 193 197 195 200 202 205 205 211 217 219 220 220 221 222 226 230 233 236 240 245 249
177 175 172 172 173 180 183 181 180 174 168 172 173 179 181 179 172 175 175 180 186 191 198 204 207 210 218 217 222 223 224 223 225 230 230 231 233 239 239 242 247 250 253
147 145 152 160 167 161 165 168 178 179 175 165 165 168 168 172 174 179 179 189 195 201 209 210 219 230 231 229 235 241 241 242 233 227 236 245 245 246 247 252 255 255 256
160 159 157 144 132 134 135 139 139 138 146 154 149 142 138 137 135 136 134 158 183 209 211 223 232 228 222 228 233 233 235 241 249 251 247 246 247 251 254 255 256 258 260